Weather History for Taylorville, IL

Change the Weather History Date:

Friday, September 27, 2013

  Actual Average (KSPI) Record (KSPI)
Temperature  
Mean Temperature 70 °F 62 °F  
Max Temperature 86 °F 74 °F 91 °F (1998)
Min Temperature 53 °F 50 °F 37 °F (1942)
Degree Days  
Heating Degree Days 0 5  
Month to date heating degree days 59  
Since 1 July heating degree days 64  
Cooling Degree Days 4 2  
Month to date cooling degree days 122  
Year to date cooling degree days 1092  
Growing Degree Days 20 (Base 50)    
Moisture  
Dew Point 54 °F    
Average Humidity 63    
Maximum Humidity 100    
Minimum Humidity 29    
Precipitation  
Precipitation 0.00 in 0.10 in 2.18 in (1916)
Month to date precipitation 2.62  
Year to date precipitation 28.27  
Snow  
Snow 0.00 in 0.00 in 0.00 in ()
Month to date snowfall 0.0  
Since 1 July snowfall 0.0  
Since 1 September snowfall 0.0  
Snow Depth -    
Sea Level Pressure  
Sea Level Pressure 30.07 in    
Wind  
Wind Speed 5 mph (SE)    
Max Wind Speed 10 mph    
Max Gust Speed 16 mph    
Visibility 10 miles    
Events      
T = Trace of Precipitation, MM = Missing Value Source: NWS Daily Summary

Daily Weather History Graph

Daily Weather History Graph

Search for Another Location

Airport:

Trip Planner

Search our weather history database for the weather conditions in past years. The results will help you decide how hot, cold, wet, or windy it might be!

Date:

Astronomy

Sep. 27, 2013 Rise Set
Actual Time 6:49 AM CDT 6:45 PM CDT
Civil Twilight 6:23 AM CDT 7:12 PM CDT
Nautical Twilight 5:51 AM CDT 7:43 PM CDT
Astronomical Twilight 5:20 AM CDT 8:15 PM CDT
Moon No Moon Rise 2:22 PM CDT (9/27)
Length of Visible Light 12h 49m
Length of Day
11h 55m
Last Quarter, 45% of the Moon is Illuminated
Sep 27
Last Quarter
Oct 4
New
Oct 11
First Quarter
Oct 18
Full
Oct 26
Last Quarter

Hourly Weather History & Observations

Time (CDT) Temp. Heat Index Dew Point Humidity Pressure Visibility Wind Dir Wind Speed Gust Speed Precip Events Conditions
12:15 AM 60.8 °F - 53.6 °F 77% 30.05 in 10.0 mi ESE 5.8 mph - N/A   Clear
12:35 AM 60.8 °F - 53.6 °F 77% 30.05 in 10.0 mi ESE 5.8 mph - N/A   Clear
12:55 AM 60.8 °F - 53.6 °F 77% 30.05 in 10.0 mi ESE 5.8 mph - N/A   Clear
1:15 AM 60.8 °F - 53.6 °F 77% 30.05 in 10.0 mi ESE 5.8 mph - N/A   Clear
1:35 AM 60.8 °F - 53.6 °F 77% 30.05 in 10.0 mi ESE 5.8 mph - N/A   Clear
1:55 AM 60.8 °F - 53.6 °F 77% 30.06 in 10.0 mi SE 4.6 mph - N/A   Clear
2:15 AM 59.0 °F - 53.6 °F 82% 30.06 in 10.0 mi ESE 4.6 mph - N/A   Clear
2:35 AM 59.0 °F - 53.6 °F 82% 30.06 in 10.0 mi ESE 5.8 mph - N/A   Clear
2:55 AM 57.2 °F - 53.6 °F 88% 30.06 in 10.0 mi ESE 4.6 mph - N/A   Clear
3:15 AM 57.2 °F - 51.8 °F 82% 30.06 in 10.0 mi SE 3.5 mph - N/A   Clear
3:35 AM 57.2 °F - 53.6 °F 88% 30.07 in 10.0 mi ESE 3.5 mph - N/A   Clear
3:55 AM 55.4 °F - 53.6 °F 94% 30.07 in 10.0 mi ESE 4.6 mph - N/A   Clear
4:15 AM 55.4 °F - 53.6 °F 94% 30.07 in 10.0 mi ESE 5.8 mph - N/A   Clear
4:35 AM 55.4 °F - 51.8 °F 88% 30.08 in 10.0 mi SE 3.5 mph - N/A   Clear
4:55 AM 55.4 °F - 51.8 °F 88% 30.08 in 10.0 mi SE 3.5 mph - N/A   Clear
5:15 AM 55.4 °F - 53.6 °F 94% 30.08 in 10.0 mi Calm Calm - N/A   Clear
5:35 AM 55.4 °F - 51.8 °F 88% 30.09 in 10.0 mi Calm Calm - N/A   Clear
5:55 AM 53.6 °F - 51.8 °F 94% 30.09 in 10.0 mi Calm Calm - N/A   Clear
6:15 AM 53.6 °F - 51.8 °F 94% 30.10 in 10.0 mi Calm Calm - N/A   Clear
6:35 AM 53.6 °F - 53.6 °F 100% 30.11 in 10.0 mi Calm Calm - N/A   Clear
6:55 AM 55.4 °F - 53.6 °F 94% 30.11 in 10.0 mi Calm Calm - N/A   Clear
7:15 AM 55.4 °F - 53.6 °F 94% 30.12 in 10.0 mi Calm Calm - N/A   Clear
7:35 AM 57.2 °F - 55.4 °F 94% 30.12 in 10.0 mi Calm Calm - N/A   Clear
7:55 AM 60.8 °F - 55.4 °F 82% 30.12 in 10.0 mi Calm Calm - N/A   Clear
8:15 AM 62.6 °F - 55.4 °F 77% 30.13 in 10.0 mi SE 3.5 mph - N/A   Clear
8:35 AM 64.4 °F - 55.4 °F 73% 30.13 in 10.0 mi SE 3.5 mph - N/A   Clear
8:55 AM 66.2 °F - 57.2 °F 73% 30.13 in 10.0 mi SE 4.6 mph - N/A   Clear
9:15 AM 69.8 °F - 57.2 °F 64% 30.13 in 10.0 mi SSE 5.8 mph - N/A   Clear
9:35 AM 71.6 °F - 59.0 °F 64% 30.13 in 10.0 mi SSE 6.9 mph - N/A   Clear
9:55 AM 73.4 °F - 59.0 °F 61% 30.13 in 10.0 mi SSE 6.9 mph - N/A   Clear
10:15 AM 77.0 °F - 57.2 °F 50% 30.13 in 10.0 mi SSE 9.2 mph - N/A   Clear
10:35 AM 78.8 °F - 57.2 °F 47% 30.13 in 10.0 mi South 8.1 mph - N/A   Clear
10:55 AM 80.6 °F 80.5 °F 55.4 °F 42% 30.13 in 10.0 mi SSE 6.9 mph - N/A   Clear
11:15 AM 82.4 °F 81.7 °F 55.4 °F 39% 30.12 in 10.0 mi SSE 9.2 mph - N/A   Clear
11:35 AM 82.4 °F 81.4 °F 53.6 °F 37% 30.12 in 10.0 mi SSE 3.5 mph - N/A   Clear
11:55 AM 84.2 °F 82.8 °F 53.6 °F 35% 30.11 in 10.0 mi SSE 6.9 mph - N/A   Clear
12:15 PM 84.2 °F - 51.8 °F 33% 30.10 in 10.0 mi ESE 6.9 mph - N/A   Clear
12:35 PM 84.2 °F 82.8 °F 53.6 °F 35% 30.10 in 10.0 mi ESE 10.4 mph - N/A   Clear
12:55 PM 84.2 °F - 51.8 °F 33% 30.09 in 10.0 mi ESE 6.9 mph - N/A   Clear
1:15 PM 84.2 °F - 51.8 °F 33% 30.08 in 10.0 mi SE 6.9 mph - N/A   Clear
1:35 PM 84.2 °F - 51.8 °F 33% 30.08 in 10.0 mi ESE 8.1 mph - N/A   Clear
1:55 PM 84.2 °F - 51.8 °F 33% 30.07 in 10.0 mi East 9.2 mph - N/A   Clear
2:15 PM 86.0 °F - 51.8 °F 31% 30.06 in 10.0 mi ESE 5.8 mph - N/A   Clear
2:35 PM 86.0 °F - 51.8 °F 31% 30.05 in 10.0 mi SE 9.2 mph - N/A   Clear
2:55 PM 86.0 °F - 51.8 °F 31% 30.05 in 10.0 mi SE 8.1 mph - N/A   Clear
3:15 PM 86.0 °F - 51.8 °F 31% 30.04 in 10.0 mi SE 5.8 mph - N/A   Clear
3:35 PM 86.0 °F - 50.0 °F 29% 30.04 in 10.0 mi SE 9.2 mph - N/A   Clear
3:55 PM 86.0 °F - 51.8 °F 31% 30.04 in 10.0 mi SE 9.2 mph - N/A   Clear
4:15 PM 84.2 °F 82.8 °F 53.6 °F 35% 30.03 in 10.0 mi SE 10.4 mph - N/A   Clear
4:35 PM 84.2 °F 82.8 °F 53.6 °F 35% 30.03 in 10.0 mi SE 8.1 mph - N/A   Clear
4:55 PM 84.2 °F 82.8 °F 53.6 °F 35% 30.03 in 10.0 mi ESE 8.1 mph - N/A   Clear
5:15 PM 82.4 °F 81.4 °F 53.6 °F 37% 30.03 in 10.0 mi ESE 8.1 mph 16.1 mph N/A   Clear
5:35 PM 82.4 °F 81.4 °F 53.6 °F 37% 30.03 in 10.0 mi ESE 10.4 mph - N/A   Clear
5:55 PM 80.6 °F 80.3 °F 53.6 °F 39% 30.03 in 10.0 mi SE 8.1 mph - N/A   Clear
6:15 PM 78.8 °F - 53.6 °F 42% 30.03 in 10.0 mi SE 5.8 mph - N/A   Clear
6:35 PM 77.0 °F - 55.4 °F 47% 30.03 in 10.0 mi SE 6.9 mph - N/A   Clear
6:55 PM 73.4 °F - 55.4 °F 53% 30.04 in 10.0 mi SE 4.6 mph - N/A   Clear
7:15 PM 71.6 °F - 55.4 °F 57% 30.04 in 10.0 mi SE 3.5 mph - N/A   Clear
7:35 PM 69.8 °F - 55.4 °F 60% 30.04 in 10.0 mi SE 3.5 mph - N/A   Clear
7:55 PM 69.8 °F - 57.2 °F 64% 30.04 in 10.0 mi SE 3.5 mph - N/A   Clear
8:15 PM 68.0 °F - 57.2 °F 68% 30.05 in 10.0 mi SE 4.6 mph - N/A   Clear
8:35 PM 68.0 °F - 57.2 °F 68% 30.05 in 10.0 mi SE 5.8 mph - N/A   Clear
8:55 PM 68.0 °F - 57.2 °F 68% 30.05 in 10.0 mi SE 4.6 mph - N/A   Clear
9:15 PM 66.2 °F - 57.2 °F 73% 30.06 in 10.0 mi SE 5.8 mph - N/A   Clear
9:35 PM 66.2 °F - 57.2 °F 73% 30.06 in 10.0 mi SE 4.6 mph - N/A   Clear
9:55 PM 64.4 °F - 57.2 °F 77% 30.05 in 10.0 mi SE 5.8 mph - N/A   Clear
10:15 PM 66.2 °F - 55.4 °F 68% 30.06 in 10.0 mi SE 5.8 mph - N/A   Clear
10:35 PM 64.4 °F - 55.4 °F 73% 30.05 in 10.0 mi SE 5.8 mph - N/A   Clear
10:55 PM 64.4 °F - 55.4 °F 73% 30.05 in 10.0 mi SE 4.6 mph - N/A   Clear
11:15 PM 64.4 °F - 55.4 °F 73% 30.05 in 10.0 mi SE 4.6 mph - N/A   Clear
11:35 PM 64.4 °F - 55.4 °F 73% 30.05 in 10.0 mi SE 5.8 mph - N/A   Clear
11:55 PM 64.4 °F - 55.4 °F 73% 30.05 in 10.0 mi SE 5.8 mph - N/A   Clear